�������l�o���
Date,Time,MP-1(��Sv/h),MP-2(��Sv/h),MP-3(��Sv/h),MP-4(��Sv/h),MP-5(��Sv/h),MP-6(��Sv/h),MP-7(��Sv/h),MP-8(��Sv/h),����,����(m/s),���J
2023/12/16,00:00,0.501,0.757,0.475,0.947,0.681,0.310,0.555,0.521,�k�k��,4.3,��
2023/12/16,00:10,0.501,0.757,0.475,0.948,0.679,0.312,0.554,0.521,�k�k��,3.3,��
2023/12/16,00:20,0.500,0.756,0.475,0.946,0.681,0.312,0.555,0.519,�k��,3.4,�L
2023/12/16,00:30,0.501,0.756,0.474,0.948,0.682,0.312,0.556,0.520,�k�k��,3.0,�L
2023/12/16,00:40,0.501,0.756,0.476,0.946,0.681,0.311,0.556,0.521,�k�k��,2.9,�L
2023/12/16,00:50,0.502,0.757,0.475,0.948,0.682,0.310,0.556,0.520,�k�k��,1.7,�L
2023/12/16,01:00,0.503,0.757,0.476,0.947,0.681,0.312,0.556,0.520,�k�k��,2.6,��
2023/12/16,01:10,0.500,0.756,0.475,0.948,0.681,0.311,0.555,0.521,�k�k��,2.9,��
2023/12/16,01:20,0.502,0.754,0.476,0.949,0.681,0.311,0.556,0.521,�k�k��,2.3,��
2023/12/16,01:30,0.500,0.756,0.475,0.947,0.682,0.311,0.555,0.520,�k�k��,3.2,��
2023/12/16,01:40,0.502,0.756,0.474,0.946,0.680,0.311,0.556,0.521,�k�k��,3.5,�L
2023/12/16,01:50,0.503,0.758,0.475,0.947,0.682,0.310,0.555,0.519,�k�k��,3.3,��
2023/12/16,02:00,0.500,0.757,0.476,0.948,0.680,0.312,0.556,0.521,�k�k��,3.4,�L
2023/12/16,02:10,0.501,0.758,0.474,0.948,0.682,0.312,0.554,0.521,�k�k��,3.7,��
2023/12/16,02:20,0.501,0.758,0.475,0.950,0.681,0.312,0.557,0.520,�k�k��,4.1,�L
2023/12/16,02:30,0.501,0.757,0.477,0.949,0.682,0.312,0.554,0.521,�k��,5.0,��
2023/12/16,02:40,0.503,0.758,0.476,0.952,0.682,0.311,0.555,0.520,�k�k��,4.3,�L
2023/12/16,02:50,0.501,0.758,0.475,0.949,0.683,0.311,0.555,0.521,�k�k��,4.5,�L
2023/12/16,03:00,0.501,0.759,0.475,0.948,0.682,0.312,0.555,0.521,�k�k��,4.1,�L
2023/12/16,03:10,0.501,0.756,0.474,0.947,0.681,0.311,0.554,0.520,�k�k��,5.3,��
2023/12/16,03:20,0.502,0.756,0.477,0.949,0.682,0.312,0.555,0.521,�k�k��,4.8,��
2023/12/16,03:30,0.501,0.759,0.476,0.949,0.681,0.311,0.555,0.521,�k�k��,5.8,��
2023/12/16,03:40,0.502,0.758,0.477,0.949,0.683,0.311,0.557,0.522,�k�k��,6.2,��
2023/12/16,03:50,0.503,0.758,0.475,0.947,0.681,0.311,0.555,0.524,�k�k��,5.3,��
2023/12/16,04:00,0.502,0.759,0.476,0.949,0.683,0.311,0.557,0.520,�k�k��,5.0,��
2023/12/16,04:10,0.502,0.759,0.475,0.950,0.682,0.312,0.554,0.520,�k,4.9,�L
2023/12/16,04:20,0.503,0.757,0.476,0.952,0.682,0.310,0.555,0.521,�k,4.6,�L
2023/12/16,04:30,0.502,0.759,0.477,0.951,0.683,0.312,0.556,0.521,�k,5.0,�L
2023/12/16,04:40,0.502,0.759,0.476,0.949,0.683,0.311,0.556,0.521,�k,4.8,�L
2023/12/16,04:50,0.502,0.759,0.476,0.950,0.682,0.313,0.556,0.522,�k�k��,2.9,�L
2023/12/16,05:00,0.502,0.760,0.477,0.951,0.683,0.312,0.556,0.521,�k��,1.9,�L
2023/12/16,05:10,0.503,0.758,0.475,0.950,0.684,0.311,0.555,0.521,�k��,2.6,��
2023/12/16,05:20,0.502,0.757,0.476,0.949,0.681,0.312,0.556,0.521,�k�k��,2.3,�L
2023/12/16,05:30,0.503,0.759,0.477,0.947,0.683,0.313,0.556,0.521,�k�k��,3.1,��
2023/12/16,05:40,0.502,0.759,0.478,0.951,0.683,0.312,0.556,0.522,�k�k��,3.1,�L
2023/12/16,05:50,0.506,0.760,0.479,0.952,0.684,0.315,0.556,0.522,�k�k��,3.0,�L
2023/12/16,06:00,0.506,0.758,0.479,0.952,0.685,0.316,0.557,0.521,�k��,2.9,�L
2023/12/16,06:10,0.507,0.761,0.481,0.952,0.684,0.316,0.555,0.521,�k�k��,2.3,�L
2023/12/16,06:20,0.508,0.760,0.481,0.954,0.685,0.317,0.554,0.523,�k��,2.3,�L
2023/12/16,06:30,0.506,0.761,0.482,0.954,0.684,0.319,0.555,0.523,�k��,2.0,�L
2023/12/16,06:40,0.508,0.759,0.482,0.954,0.685,0.318,0.557,0.521,�k��,1.8,�L
2023/12/16,06:50,0.505,0.759,0.480,0.952,0.685,0.316,0.554,0.522,���k��,1.9,�L
2023/12/16,07:00,0.504,0.759,0.479,0.952,0.685,0.315,0.554,0.521,�k��,2.2,�L
2023/12/16,07:10,0.504,0.757,0.479,0.951,0.683,0.314,0.554,0.521,�k��,2.3,��
2023/12/16,07:20,0.503,0.755,0.478,0.951,0.680,0.314,0.555,0.522,�k��,2.0,��
2023/12/16,07:30,0.501,0.758,0.477,0.948,0.683,0.315,0.555,0.522,�k��,2.9,��
2023/12/16,07:40,0.500,0.757,0.477,0.948,0.680,0.311,0.554,0.520,�k��,2.8,��
2023/12/16,07:50,0.501,0.755,0.477,0.948,0.680,0.313,0.554,0.519,�k�k��,2.3,��
2023/12/16,08:00,0.500,0.756,0.474,0.949,0.681,0.312,0.555,0.521,�k�k��,2.0,��
2023/12/16,08:10,0.500,0.755,0.473,0.947,0.680,0.312,0.554,0.520,�k��,2.2,��
2023/12/16,08:20,0.500,0.753,0.474,0.948,0.679,0.313,0.556,0.521,�k�k��,1.7,��
2023/12/16,08:30,0.499,0.754,0.474,0.945,0.680,0.312,0.554,0.520,�k�k��,2.3,��
2023/12/16,08:40,0.499,0.755,0.475,0.946,0.680,0.312,0.552,0.520,�k,0.9,��
2023/12/16,08:50,0.498,0.755,0.475,0.948,0.680,0.312,0.554,0.520,�k,0.9,��
2023/12/16,09:00,0.500,0.754,0.474,0.946,0.679,0.313,0.553,0.521,�k�k��,1.1,��
2023/12/16,09:10,0.498,0.754,0.474,0.948,0.679,0.312,0.554,0.522,�k,1.4,��
2023/12/16,09:20,0.499,0.754,0.475,0.948,0.679,0.312,0.554,0.520,�k�k��,1.8,��
2023/12/16,09:30,0.500,0.756,0.475,0.946,0.681,0.312,0.553,0.519,�k��,1.5,��
2023/12/16,09:40,0.500,0.754,0.475,0.948,0.681,0.313,0.554,0.521,�k�k��,1.4,��
2023/12/16,09:50,0.502,0.754,0.475,0.946,0.680,0.313,0.554,0.520,�k,0.9,��
2023/12/16,10:00,0.501,0.755,0.475,0.947,0.680,0.312,0.554,0.521,�k�k��,0.9,��
2023/12/16,10:10,0.502,0.755,0.475,0.947,0.679,0.311,0.555,0.521,�k�k��,1.5,��
2023/12/16,10:20,0.500,0.754,0.477,0.948,0.683,0.311,0.553,0.522,�k�k��,1.4,��
2023/12/16,10:30,0.501,0.753,0.476,0.948,0.680,0.313,0.554,0.521,�k�k��,1.8,��
2023/12/16,10:40,0.500,0.753,0.475,0.948,0.681,0.311,0.554,0.521,�k��,0.6,��
2023/12/16,10:50,0.500,0.756,0.475,0.947,0.681,0.311,0.553,0.522,-,CALM,��
2023/12/16,11:00,0.501,0.754,0.475,0.949,0.681,0.311,0.553,0.522,���k��,0.8,��
2023/12/16,11:10,0.499,0.755,0.476,0.948,0.680,0.311,0.554,0.523,��,1.1,��
2023/12/16,11:20,0.500,0.756,0.475,0.950,0.681,0.311,0.554,0.521,�쓌,0.9,��
2023/12/16,11:30,0.501,0.755,0.476,0.949,0.681,0.311,0.556,0.523,��쓌,1.2,��
2023/12/16,11:40,0.499,0.754,0.477,0.950,0.680,0.311,0.554,0.523,��쓌,1.7,��
2023/12/16,11:50,0.501,0.755,0.474,0.949,0.681,0.312,0.554,0.521,��쓌,2.0,��
2023/12/16,12:00,0.500,0.756,0.475,0.950,0.680,0.311,0.555,0.521,��,2.8,��
2023/12/16,12:10,0.500,0.756,0.477,0.948,0.683,0.310,0.554,0.520,��,3.9,��
2023/12/16,12:20,0.500,0.755,0.476,0.948,0.681,0.312,0.555,0.522,��,3.1,��
2023/12/16,12:30,0.502,0.756,0.479,0.949,0.682,0.311,0.557,0.520,��,4.1,��
2023/12/16,12:40,0.501,0.756,0.478,0.949,0.682,0.311,0.555,0.520,��쓌,4.4,��
2023/12/16,12:50,0.501,0.756,0.477,0.949,0.683,0.311,0.556,0.521,��쓌,4.6,��
2023/12/16,13:00,0.502,0.756,0.478,0.950,0.682,0.313,0.556,0.521,��쓌,4.4,��
2023/12/16,13:10,0.503,0.757,0.477,0.949,0.684,0.312,0.556,0.521,��,2.9,��
2023/12/16,13:20,0.503,0.760,0.479,0.948,0.681,0.312,0.555,0.522,��쐼,1.8,��
2023/12/16,13:30,0.502,0.760,0.478,0.950,0.682,0.313,0.557,0.522,��쐼,1.8,��
2023/12/16,13:40,0.503,0.758,0.478,0.952,0.683,0.312,0.555,0.520,��쓌,1.5,��
2023/12/16,13:50,0.502,0.759,0.477,0.949,0.683,0.312,0.555,0.521,��쓌,2.8,��
2023/12/16,14:00,0.505,0.757,0.478,0.950,0.685,0.313,0.556,0.521,��쓌,2.9,��
2023/12/16,14:10,0.503,0.759,0.478,0.952,0.683,0.312,0.556,0.521,��쓌,1.5,��
2023/12/16,14:20,0.502,0.758,0.477,0.949,0.684,0.313,0.556,0.522,��쓌,2.0,��
2023/12/16,14:30,0.504,0.758,0.477,0.950,0.685,0.312,0.557,0.520,��쓌,2.5,��
2023/12/16,14:40,0.502,0.758,0.476,0.950,0.682,0.314,0.557,0.519,��쓌,2.8,��
2023/12/16,14:50,0.502,0.758,0.477,0.950,0.684,0.312,0.556,0.520,��,2.5,��
2023/12/16,15:00,0.503,0.758,0.477,0.950,0.683,0.312,0.556,0.521,��,2.8,��
2023/12/16,15:10,0.504,0.758,0.479,0.950,0.683,0.313,0.556,0.521,��쐼,1.1,��
2023/12/16,15:20,0.503,0.760,0.479,0.952,0.683,0.313,0.556,0.521,��쐼,1.2,��
2023/12/16,15:30,0.502,0.761,0.481,0.951,0.684,0.314,0.556,0.522,���쐼,1.2,��
2023/12/16,15:40,0.503,0.763,0.480,0.950,0.684,0.312,0.558,0.522,���쐼,1.1,��
2023/12/16,15:50,0.505,0.764,0.479,0.953,0.685,0.312,0.557,0.522,���쐼,2.3,��
2023/12/16,16:00,0.503,0.763,0.480,0.950,0.686,0.314,0.557,0.521,��쐼,1.5,��
2023/12/16,16:10,0.504,0.762,0.481,0.951,0.688,0.313,0.555,0.522,��쓌,2.0,��
2023/12/16,16:20,0.505,0.763,0.480,0.951,0.685,0.313,0.557,0.524,�쓌,3.2,��
2023/12/16,16:30,0.505,0.763,0.482,0.950,0.686,0.314,0.558,0.522,�쓌,3.5,��
2023/12/16,16:40,0.505,0.762,0.481,0.952,0.685,0.314,0.557,0.523,��쓌,2.5,��
2023/12/16,16:50,0.505,0.763,0.480,0.951,0.686,0.315,0.559,0.523,��,2.3,��
2023/12/16,17:00,0.507,0.762,0.480,0.953,0.685,0.312,0.556,0.522,�쐼,2.2,��
2023/12/16,17:10,0.507,0.764,0.481,0.952,0.686,0.315,0.556,0.523,���k��,3.1,��
2023/12/16,17:20,0.505,0.764,0.481,0.952,0.687,0.314,0.556,0.521,���k��,4.4,��
2023/12/16,17:30,0.506,0.762,0.479,0.951,0.687,0.314,0.558,0.523,���k��,5.4,��
2023/12/16,17:40,0.505,0.763,0.480,0.952,0.687,0.314,0.557,0.523,���k��,5.0,��
2023/12/16,17:50,0.507,0.764,0.479,0.952,0.687,0.315,0.557,0.523,���k��,4.5,��
2023/12/16,18:00,0.505,0.762,0.480,0.953,0.685,0.312,0.556,0.523,���k��,4.6,��
2023/12/16,18:10,0.505,0.763,0.481,0.952,0.687,0.313,0.556,0.524,��,4.5,��
2023/12/16,18:20,0.507,0.763,0.480,0.951,0.686,0.314,0.558,0.524,���쐼,6.3,��
2023/12/16,18:30,0.505,0.764,0.479,0.951,0.688,0.313,0.557,0.524,���쐼,5.4,��
2023/12/16,18:40,0.505,0.764,0.480,0.950,0.687,0.314,0.557,0.524,���쐼,4.7,��
2023/12/16,18:50,0.506,0.762,0.481,0.953,0.685,0.314,0.557,0.524,���쐼,3.8,��
2023/12/16,19:00,0.504,0.763,0.481,0.953,0.685,0.314,0.557,0.524,�쐼,3.0,��
2023/12/16,19:10,0.508,0.764,0.480,0.954,0.689,0.314,0.556,0.524,�쐼,3.0,��
2023/12/16,19:20,0.505,0.764,0.481,0.952,0.686,0.314,0.557,0.525,��쐼,3.4,��
2023/12/16,19:30,0.505,0.763,0.481,0.951,0.688,0.313,0.556,0.523,�쐼,2.6,��
2023/12/16,19:40,0.506,0.763,0.480,0.951,0.687,0.314,0.557,0.524,��쓌,2.2,��
2023/12/16,19:50,0.506,0.762,0.481,0.953,0.687,0.314,0.557,0.523,��,4.4,��
2023/12/16,20:00,0.505,0.764,0.480,0.952,0.687,0.313,0.557,0.524,��,5.6,��
2023/12/16,20:10,0.508,0.763,0.479,0.952,0.686,0.314,0.557,0.523,��,4.5,��
2023/12/16,20:20,0.507,0.764,0.480,0.952,0.687,0.314,0.558,0.523,�쐼,3.8,��
2023/12/16,20:30,0.507,0.763,0.478,0.952,0.687,0.314,0.557,0.525,�쐼,3.0,��
2023/12/16,20:40,0.504,0.764,0.482,0.952,0.689,0.314,0.557,0.525,���쐼,3.0,��
2023/12/16,20:50,0.505,0.763,0.479,0.952,0.688,0.312,0.558,0.524,���쐼,4.0,��
2023/12/16,21:00,0.506,0.763,0.482,0.954,0.686,0.314,0.559,0.523,��,5.1,��
2023/12/16,21:10,0.506,0.763,0.479,0.954,0.686,0.314,0.557,0.525,���쐼,3.3,��
2023/12/16,21:20,0.506,0.762,0.480,0.953,0.688,0.316,0.558,0.524,��쐼,0.8,��
2023/12/16,21:30,0.506,0.763,0.479,0.951,0.686,0.314,0.556,0.524,�k,0.9,��
2023/12/16,21:40,0.505,0.764,0.480,0.953,0.687,0.315,0.557,0.523,�k��,1.4,��
2023/12/16,21:50,0.505,0.763,0.479,0.953,0.687,0.313,0.558,0.525,��,2.3,��
2023/12/16,22:00,0.506,0.763,0.481,0.954,0.689,0.313,0.557,0.524,���k��,4.2,��
2023/12/16,22:10,0.505,0.764,0.480,0.954,0.688,0.313,0.557,0.524,���k��,2.8,��
2023/12/16,22:20,0.508,0.763,0.482,0.954,0.688,0.316,0.558,0.523,�k��,2.6,��
2023/12/16,22:30,0.507,0.763,0.480,0.953,0.686,0.314,0.557,0.523,�k��,4.2,��
2023/12/16,22:40,0.506,0.762,0.481,0.954,0.689,0.314,0.558,0.523,�k��,3.4,��
2023/12/16,22:50,0.507,0.764,0.482,0.954,0.687,0.314,0.557,0.525,�k��,3.0,��
2023/12/16,23:00,0.505,0.763,0.479,0.953,0.687,0.314,0.557,0.523,�k��,2.0,��
2023/12/16,23:10,0.506,0.764,0.479,0.957,0.687,0.315,0.558,0.523,�k��,5.6,��
2023/12/16,23:20,0.506,0.763,0.479,0.954,0.687,0.314,0.557,0.526,���k��,8.8,��
2023/12/16,23:30,0.508,0.763,0.480,0.956,0.686,0.314,0.560,0.522,���k��,11.3,��
2023/12/16,23:40,0.506,0.764,0.480,0.956,0.687,0.315,0.559,0.524,���k��,9.4,��
2023/12/16,23:50,0.505,0.764,0.481,0.955,0.688,0.314,0.558,0.523,��,9.8,��
